{"data":{"norad_id":57460,"intl_designator":"2023-107D","name":"STARLINK-30077","alt_names":[],"object_type":"PAYLOAD","status":"ACTIVE","operator":null,"country":"US","launch_date":"2023-07-28","launch_site_code":"AFETR","launch_vehicle":null,"mission":null,"orbit_class":"UNKNOWN","rcs_meters":null,"size_class":null,"mass_kg":null,"dimensions":null,"purposes":["comms"],"wikipedia_slug":null,"has_3d_model":false,"image_url":null,"decayed_at":null,"tle_current":{"epoch":"2026-09-20T10:12:53.796096Z","epoch_age_seconds":134107,"freshness":"FRESH","line1":"1 57460U 23107D   26263.42562264  .00000253  00000+0  18702-4 0  9996","line2":"2 57460  43.0020 315.9835 0001175 261.5649  98.5070 15.27577114174937","mean_motion":15.27577114,"eccentricity":0.0001175,"inclination_deg":43.002,"raan_deg":315.9835,"arg_perigee_deg":261.5649,"mean_anomaly_deg":98.507,"bstar":1.8702e-5,"rev_number":17493,"period_min":94.266926808646,"perigee_km":482.2515473938,"apogee_km":483.86392815718,"semimajor_km":6861.1947377755,"source":"CELESTRAK","updated_at":"2026-09-21T09:00:33.629233Z"}}}